This is the latest recevied weather packets stored in our database for station/object PI8ANH-13. If no packets are shown the sender has not sent any weather packets the latest 1 day(s).
| Time | Temp. | Humidity | Pressure | Rain* | Wind** | Luminosity | Snow |
|---|---|---|---|---|---|---|---|
| 1777966197 | 7.78° C | 100% | 1011 hPa | - | 5.36 m/s, 10° | - | - |
| 1777965297 | 7.78° C | 100% | 1011 hPa | - | 5.36 m/s, 10° | - | - |
| 1777964397 | 8.89° C | 87% | 1012 hPa | - | 4.02 m/s, 10° | - | - |
| 1777963497 | 8.89° C | 87% | 1012 hPa | - | 4.02 m/s, 10° | - | - |
| 1777962597 | 8.89° C | 87% | 1011 hPa | - | 3.58 m/s, 10° | - | - |
| 1777961697 | 8.89° C | 87% | 1011 hPa | - | 3.58 m/s, 10° | - | - |
| 1777960797 | 7.78° C | 93% | 1011 hPa | - | 3.13 m/s, 10° | - | - |
| 1777959897 | 7.78° C | 93% | 1011 hPa | - | 3.13 m/s, 10° | - | - |
| 1777958998 | 8.89° C | 87% | 1011 hPa | - | 3.13 m/s, 20° | - | - |
| 1777958097 | 8.89° C | 87% | 1011 hPa | - | 3.13 m/s, 20° | - | - |
| 1777957197 | 8.89° C | 93% | 1011 hPa | - | 3.58 m/s, 10° | - | - |
| 1777956297 | 8.89° C | 93% | 1011 hPa | - | 3.58 m/s, 10° | - | - |
| 1777955397 | 8.89° C | 87% | 1011 hPa | - | 3.58 m/s, 10° | - | - |
| 1777954497 | 8.89° C | 87% | 1011 hPa | - | 3.58 m/s, 10° | - | - |
| 1777953597 | 8.89° C | 93% | 1011 hPa | - | 3.58 m/s, 30° | - | - |
| 1777952697 | 8.89° C | 93% | 1011 hPa | - | 3.58 m/s, 30° | - | - |
| 1777951797 | 8.89° C | 93% | 1011 hPa | - | 4.02 m/s, 10° | - | - |
| 1777950898 | 8.89° C | 93% | 1011 hPa | - | 4.02 m/s, 10° | - | - |
| 1777949997 | 8.89° C | 93% | 1011 hPa | - | 3.58 m/s, 10° | - | - |
| 1777949097 | 8.89° C | 93% | 1011 hPa | - | 3.58 m/s, 10° | - | - |
| 1777948198 | 8.89° C | 100% | 1012 hPa | - | 4.02 m/s, 360° | - | - |
| 1777947297 | 8.89° C | 100% | 1012 hPa | - | 4.02 m/s, 360° | - | - |
* Rain since midnight (hover to see other rain measurements)
** Current wind speed in m/s (hover to see current wind gust speed)